Location: Marcé
(47.5801°N, 0.3280°W)
Time: 12:10:02
(UTC+01:00)

Vanguard 3 - Pass Details

Date: 07 December 2021
Orbit: 508 x 3260 km, 33.3° (Epoch: 17 January)

Event Time Altitude Azimuth Distance (km) Brightness Sun altitude
Exits shadow 01:52:33 21° 119° (ESE) 5,309 11.1 -62.3°
Drops below altitude 10° 02:00:33 10° 96° (E) 6,106 11.7 -61.6°
Sets 02:06:28 0° 84° (E) 6,923 12.2 -61.0°
